Date String (YYYY-MM-DD hh:mm:ss) UTC,Instrument flags,absolute air pressure of the measurement (hPa),sample flow rate (lpm),inlet stack bypass flow (lpm),air temperature of the measurement (°C),ambient temperature measured by the external sensor (°C),aerosol sample conditioner tube jacket temperature (°C),OPC LED temperature (°C),internal box temperature (°C),relative humidity of the measurement (%),span deviation,mass concentration of particles derived from Lorenz-Mie calculation of OPC scattering (μg/m³),mass concentration of particles derived from Lorenz-Mie calculation of OPC scattering (μg/m³),mass concentration of particles derived from Lorenz-Mie calculation of OPC scattering (μg/m³)
DateTimeUTC,F1_M11,P_M11,Q1_M11,Q2_M11,T1_M11,T2_M11,T3_M11,T4_M11,T5_M11,U1_M11,ZSPAN_M11,X0_M11,X2_M11,X1_M11
2023-09-22 01:00:00,SystemResetWarning,0827.4,5.01,000.00,027.9,024.5,000.0,036.2,029.2,25.8,0000.0,0012.04,0003.73,0002.73
2023-09-22 01:01:00,SystemResetWarning,0827.4,5.01,000.00,027.8,024.7,000.0,036.1,029.2,25.8,0000.0,0012.16,0003.75,0002.77
2023-09-22 01:02:00,SystemResetWarning,0827.4,5.00,000.00,027.8,025.0,000.0,036.2,029.2,25.8,0000.0,0012.52,0003.84,0002.81
2023-09-22 01:03:00,SystemResetWarning,0827.4,4.98,000.00,027.8,025.3,000.0,036.2,029.3,25.8,0000.0,0012.85,0003.95,0002.84
2023-09-22 01:04:00,SystemResetWarning,0827.4,5.00,000.00,027.8,025.7,000.0,036.2,029.4,25.8,0000.0,0013.96,0004.04,0002.90
2023-09-22 01:05:00,SystemResetWarning,0827.4,5.00,000.00,027.8,026.0,000.0,036.2,029.5,25.7,0000.0,0015.10,0004.11,0002.94
2023-09-22 01:06:00,SystemResetWarning,0827.4,5.00,000.00,027.8,026.3,000.0,036.2,029.6,25.6,0000.0,0015.28,0004.22,0002.98
2023-09-22 01:07:00,SystemResetWarning,0827.4,5.00,000.00,027.9,026.5,000.0,036.2,029.6,25.6,0000.0,0015.75,0004.23,0003.01
2023-09-22 01:08:00,SystemResetWarning,0827.4,5.00,000.00,027.9,026.7,000.0,036.2,029.7,25.5,0000.0,0015.33,0004.27,0003.04
2023-09-22 01:09:00,SystemResetWarning,0827.5,5.00,000.00,028.0,026.9,000.0,036.3,029.8,25.4,0000.0,0015.37,0004.25,0003.03
2023-09-22 01:10:00,SystemResetWarning,0827.9,5.00,000.00,028.0,027.0,000.0,036.3,029.8,25.4,0000.0,0015.29,0004.30,0003.05
2023-09-22 01:11:00,SystemResetWarning,0827.6,4.99,000.00,028.1,026.4,000.0,036.3,029.7,25.3,0000.0,0014.67,0004.32,0003.06
2023-09-22 01:12:00,SystemResetWarning,0827.4,5.00,000.00,028.0,024.9,000.0,036.2,029.2,25.3,0000.0,0014.35,0004.36,0003.06
2023-09-22 01:13:00,SystemResetWarning,0827.4,5.01,000.00,027.9,024.6,000.0,036.2,029.2,25.3,0000.0,0014.13,0004.35,0003.06
2023-09-22 01:14:00,SystemResetWarning,0827.4,4.99,000.00,027.8,024.7,000.0,036.2,029.2,25.4,0000.0,0013.98,0004.27,0003.06
2023-09-22 01:15:00,SystemResetWarning,0827.5,5.00,000.00,027.8,025.0,000.0,036.2,029.3,25.4,0000.0,0013.64,0004.25,0003.04
2023-09-22 01:16:00,SystemResetWarning,0827.7,4.99,000.00,027.8,025.4,000.0,036.2,029.4,25.4,0000.0,0013.77,0004.24,0003.04
2023-09-22 01:17:00,SystemResetWarning,0827.7,5.00,000.00,027.8,025.7,000.0,036.2,029.5,25.3,0000.0,0014.14,0004.14,0003.02
2023-09-22 01:18:00,SystemResetWarning,0827.5,5.01,000.00,027.8,026.0,000.0,036.2,029.5,25.2,0000.0,0013.38,0004.16,0003.02
2023-09-22 01:19:00,SystemResetWarning,0827.5,5.00,000.00,027.9,026.3,000.0,036.2,029.6,25.1,0000.0,0013.00,0004.10,0003.00
2023-09-22 01:20:00,SystemResetWarning,0827.5,4.99,000.00,027.9,026.5,000.0,036.2,029.6,25.0,0000.0,0012.87,0004.12,0003.00
2023-09-22 01:21:00,SystemResetWarning,0827.6,4.99,000.00,028.0,026.7,000.0,036.3,029.7,24.8,0000.0,0013.57,0004.13,0003.01
2023-09-22 01:22:00,SystemResetWarning,0827.6,5.00,000.00,028.0,026.9,000.0,036.3,029.8,24.7,0000.0,0014.55,0004.11,0003.01
2023-09-22 01:23:00,SystemResetWarning,0827.7,5.01,000.00,028.1,027.0,000.0,036.3,029.8,24.7,0000.0,0015.06,0004.07,0002.99
2023-09-22 01:24:00,SystemResetWarning,0827.7,5.00,000.00,028.1,026.8,000.0,036.3,029.8,24.7,0000.0,0015.20,0004.06,0002.97
2023-09-22 01:25:00,SystemResetWarning,0827.7,4.99,000.00,028.0,025.2,000.0,036.3,029.4,24.7,0000.0,0015.26,0004.04,0002.96
2023-09-22 01:26:00,SystemResetWarning,0827.7,5.01,000.00,027.9,024.5,000.0,036.2,029.2,24.8,0000.0,0014.57,0004.00,0002.97
2023-09-22 01:27:00,SystemResetWarning,0827.6,5.01,000.00,027.8,024.6,000.0,036.2,029.2,24.9,0000.0,0013.86,0004.00,0002.98
2023-09-22 01:28:00,SystemResetWarning,0827.7,5.00,000.00,027.8,024.9,000.0,036.2,029.2,25.0,0000.0,0013.06,0004.05,0002.98
2023-09-22 01:29:00,SystemResetWarning,0827.7,4.99,000.00,027.8,025.2,000.0,036.2,029.3,25.0,0000.0,0014.05,0004.04,0002.98
2023-09-22 01:30:00,SystemResetWarning,0827.7,5.00,000.00,027.8,025.6,000.0,036.2,029.4,25.0,0000.0,0014.04,0004.02,0002.97
2023-09-22 01:31:00,SystemResetWarning,0827.7,5.00,000.00,027.8,025.9,000.0,036.2,029.5,24.9,0000.0,0013.98,0003.99,0002.96
2023-09-22 01:32:00,SystemResetWarning,0827.7,4.99,000.00,027.9,026.2,000.0,036.2,029.6,24.9,0000.0,0013.73,0003.97,0002.93
2023-09-22 01:33:00,SystemResetWarning,0827.7,5.00,000.00,027.9,026.4,000.0,036.2,029.6,24.9,0000.0,0012.85,0003.99,0002.90
2023-09-22 01:34:00,SystemResetWarning,0827.7,5.00,000.00,027.9,026.6,000.0,036.3,029.7,24.8,0000.0,0012.10,0004.00,0002.90
2023-09-22 01:35:00,SystemResetWarning,0827.7,5.00,000.00,028.0,026.8,000.0,036.3,029.8,24.8,0000.0,0011.95,0004.00,0002.89
2023-09-22 01:36:00,SystemResetWarning,0827.7,5.01,000.00,028.0,026.9,000.0,036.3,029.8,24.7,0000.0,0011.60,0003.99,0002.89
2023-09-22 01:37:00,SystemResetWarning,0827.7,5.00,000.00,028.1,027.0,000.0,036.3,029.9,24.7,0000.0,0011.76,0003.99,0002.88
2023-09-22 01:38:00,SystemResetWarning,0827.7,5.00,000.00,028.1,027.1,000.0,036.3,029.9,24.7,0000.0,0011.93,0004.03,0002.88
2023-09-22 01:39:00,SystemResetWarning,0827.7,4.98,000.00,028.1,026.0,000.0,036.3,029.6,24.7,0000.0,0011.54,0004.03,0002.88
2023-09-22 01:40:00,SystemResetWarning,0827.7,5.01,000.00,028.0,024.7,000.0,036.3,029.3,24.9,0000.0,0011.16,0004.01,0002.87
2023-09-22 01:41:00,SystemResetWarning,0827.7,5.01,000.00,027.9,024.6,000.0,036.2,029.3,25.0,0000.0,0011.42,0004.03,0002.85
2023-09-22 01:42:00,SystemResetWarning,0827.7,4.99,000.00,027.8,024.8,000.0,036.2,029.2,25.2,0000.0,0011.69,0004.06,0002.84
2023-09-22 01:43:00,SystemResetWarning,0827.7,5.00,000.00,027.8,025.1,000.0,036.2,029.3,25.2,0000.0,0012.05,0004.09,0002.85
2023-09-22 01:44:00,SystemResetWarning,0827.7,5.01,000.00,027.8,025.5,000.0,036.2,029.4,25.3,0000.0,0012.06,0004.11,0002.87
2023-09-22 01:45:00,SystemResetWarning,0827.7,5.01,000.00,027.8,025.8,000.0,036.2,029.5,25.3,0000.0,0012.37,0004.09,0002.89
2023-09-22 01:46:00,SystemResetWarning,0827.8,4.99,000.00,027.9,026.0,000.0,036.3,029.5,25.3,0000.0,0012.77,0004.15,0002.91
2023-09-22 01:47:00,SystemResetWarning,0827.8,4.99,000.00,027.9,026.3,000.0,036.3,029.6,25.2,0000.0,0013.48,0004.22,0002.91
2023-09-22 01:48:00,SystemResetWarning,0827.8,5.00,000.00,027.9,026.5,000.0,036.3,029.7,25.2,0000.0,0014.49,0004.32,0002.92
2023-09-22 01:49:00,SystemResetWarning,0827.8,5.00,000.00,028.0,026.7,000.0,036.3,029.7,25.2,0000.0,0015.12,0004.46,0002.93
2023-09-22 01:50:00,SystemResetWarning,0827.8,5.01,000.00,028.0,026.8,000.0,036.3,029.8,25.1,0000.0,0016.31,0004.52,0002.95
2023-09-22 01:51:00,SystemResetWarning,0827.8,5.00,000.00,028.1,026.9,000.0,036.3,029.9,25.1,0000.0,0016.39,0004.65,0002.98
2023-09-22 01:52:00,SystemResetWarning,0827.8,4.99,000.00,028.1,027.1,000.0,036.3,029.9,25.0,0000.0,0016.94,0004.77,0003.03
2023-09-22 01:53:00,SystemResetWarning,0827.8,5.00,000.00,028.2,027.1,000.0,036.4,029.9,25.0,0000.0,0016.91,0004.86,0003.06
2023-09-22 01:54:00,SystemResetWarning,0827.8,4.99,000.00,028.1,025.8,000.0,036.3,029.6,25.0,0000.0,0016.66,0004.89,0003.07
2023-09-22 01:55:00,SystemResetWarning,0827.8,5.02,000.00,028.0,024.6,000.0,036.3,029.3,25.2,0000.0,0016.65,0004.92,0003.08
2023-09-22 01:56:00,SystemResetWarning,0827.7,5.00,000.00,027.9,024.5,000.0,036.3,029.2,25.2,0000.0,0016.78,0004.98,0003.08
2023-09-22 01:57:00,SystemResetWarning,0827.8,5.00,000.00,027.8,024.7,000.0,036.3,029.2,25.4,0000.0,0016.58,0004.95,0003.08
2023-09-22 01:58:00,SystemResetWarning,0827.8,5.00,000.00,027.8,025.1,000.0,036.3,029.3,25.4,0000.0,0017.86,0004.94,0003.09
2023-09-22 01:59:00,SystemResetWarning,0827.9,5.00,000.00,027.8,025.4,000.0,036.3,029.4,25.4,0000.0,0017.80,0004.88,0003.08
